| time (UTC) | temp F | wind direction | speed knots | gust knots | rain 1hr in | rain 24hr in | rain mn in | humidity % | barometer mb |
| 20260906162250 | 75 | 166 | 3.5 | 5.2 | 0.00 | 0.00 | 0.00 | 79 | 1019.3 |
| 20260906161745 | 75 | 55 | 2.6 | 7.0 | 0.00 | 0.00 | 0.00 | 81 | 1019.4 |
| 20260906161244 | 76 | 170 | 5.2 | 7.0 | 0.00 | 0.00 | 0.00 | 78 | 1019.6 |
| 20260906160743 | 76 | 99 | 2.6 | 6.1 | 0.00 | 0.00 | 0.00 | 79 | 1019.5 |
| 20260906160238 | 75 | 138 | 3.5 | 7.0 | 0.00 | 0.00 | 0.00 | 80 | 1019.6 |
| 20260906155735 | 74 | 151 | 1.7 | 6.1 | 0.00 | 0.00 | 0.00 | 81 | 1019.4 |
| 20260906155230 | 74 | 109 | 7.0 | 7.8 | 0.00 | 0.00 | 0.00 | 82 | 1019.4 |
| 20260906154726 | 75 | 92 | 5.2 | 7.0 | 0.00 | 0.00 | 0.00 | 80 | 1019.3 |
| 20260906154221 | 75 | 105 | 6.1 | 7.8 | 0.00 | 0.00 | 0.00 | 80 | 1019.2 |
| 20260906153719 | 73 | 116 | 5.2 | 7.8 | 0.00 | 0.00 | 0.00 | 85 | 1019.5 |
| 20260906153213 | 73 | 201 | 0.9 | 7.8 | 0.00 | 0.00 | 0.00 | 86 | 1019.5 |
| 20260906152703 | 73 | 143 | 1.7 | 5.2 | 0.00 | 0.00 | 0.00 | 85 | 1019.5 |
| 20260906152202 | 73 | 123 | 3.5 | 7.0 | 0.00 | 0.00 | 0.00 | 85 | 1019.5 |
| 20260906151657 | 75 | 143 | 3.5 | 6.1 | 0.00 | 0.00 | 0.00 | 81 | 1019.3 |
| 20260906151153 | 74 | 98 | 1.7 | 6.1 | 0.00 | 0.00 | 0.00 | 83 | 1019.2 |
| 20260906150648 | 73 | 177 | 6.1 | 7.8 | 0.00 | 0.00 | 0.00 | 85 | 1019.1 |
| 20260906150143 | 71 | 153 | 2.6 | 7.8 | 0.00 | 0.00 | 0.00 | 89 | 1019.2 |
| 20260906145642 | 71 | 94 | 3.5 | 7.0 | 0.00 | 0.00 | 0.00 | 90 | 1019.4 |
| 20260906145137 | 70 | 109 | 2.6 | 3.5 | 0.00 | 0.00 | 0.00 | 91 | 1019.4 |
| 20260906144631 | 69 | 146 | 2.6 | 5.2 | 0.00 | 0.00 | 0.00 | 93 | 1019.4 |
| 20260906144126 | 69 | 156 | 2.6 | 6.1 | 0.00 | 0.00 | 0.00 | 94 | 1019.4 |
| 20260906143626 | 68 | 132 | 3.5 | 7.0 | 0.00 | 0.00 | 0.00 | 94 | 1019.4 |
| 20260906143123 | 68 | 120 | 3.5 | 6.1 | 0.00 | 0.00 | 0.00 | 95 | 1019.5 |
| 20260906142622 | 67 | 122 | 4.3 | 7.8 | 0.00 | 0.00 | 0.00 | 96 | 1019.4 |
| 20260906142117 | 67 | 154 | 2.6 | 7.0 | 0.00 | 0.00 | 0.00 | 96 | 1019.5 |
| 20260906141616 | 68 | 113 | 5.2 | 8.7 | 0.00 | 0.00 | 0.00 | 95 | 1019.4 |
| 20260906141112 | 68 | 98 | 2.6 | 5.2 | 0.00 | 0.00 | 0.00 | 96 | 1019.4 |
| 20260906140611 | 68 | 125 | 3.5 | 6.1 | 0.00 | 0.00 | 0.00 | 95 | 1019.2 |
| 20260906140106 | 68 | 90 | 5.2 | 6.1 | 0.00 | 0.00 | 0.00 | 96 | 1019.4 |
| 20260906135603 | 68 | 121 | 3.5 | 5.2 | 0.00 | 0.00 | 0.00 | 96 | 1019.3 |
| 20260906135059 | 68 | 94 | 4.3 | 6.1 | 0.00 | 0.00 | 0.00 | 96 | 1019.2 |
| 20260906134554 | 68 | 95 | 6.1 | 8.7 | 0.00 | 0.00 | 0.00 | 96 | 1018.9 |
| 20260906134049 | 68 | 169 | 3.5 | 7.0 | 0.00 | 0.00 | 0.00 | 96 | 1019.1 |
| 20260906133550 | 68 | 199 | 5.2 | 7.0 | 0.00 | 0.00 | 0.00 | 95 | 1018.8 |
| 20260906133045 | 68 | 129 | 3.5 | 6.1 | 0.00 | 0.00 | 0.00 | 95 | 1019.2 |
| 20260906132540 | 69 | 85 | 3.5 | 6.1 | 0.00 | 0.00 | 0.00 | 95 | 1018.9 |
| 20260906132036 | 69 | 111 | 3.5 | 6.1 | 0.00 | 0.00 | 0.00 | 95 | 1019.0 |
| 20260906131531 | 68 | 110 | 3.5 | 5.2 | 0.00 | 0.00 | 0.00 | 95 | 1018.8 |
| 20260906131026 | 68 | 109 | 0.9 | 5.2 | 0.00 | 0.00 | 0.00 | 95 | 1018.8 |
| 20260906130525 | 68 | 115 | 2.6 | 6.1 | 0.00 | 0.00 | 0.00 | 95 | 1019.0 |
| 20260906130022 | 68 | 110 | 3.5 | 5.2 | 0.00 | 0.00 | 0.00 | 96 | 1018.9 |
| 20260906125519 | 68 | 109 | 3.5 | 3.5 | 0.00 | 0.00 | 0.00 | 96 | 1018.9 |
| 20260906125019 | 67 | 122 | 2.6 | 5.2 | 0.00 | 0.00 | 0.00 | 96 | 1018.9 |
| 20260906124515 | 68 | 87 | 3.5 | 3.5 | 0.00 | 0.00 | 0.00 | 96 | 1019.1 |
| 20260906124015 | 67 | 83 | 1.7 | 2.6 | 0.00 | 0.00 | 0.00 | 96 | 1019.2 |
| 20260906123513 | 67 | 122 | 2.6 | 2.6 | 0.00 | 0.00 | 0.00 | 97 | 1018.9 |
| 20260906123009 | 67 | 114 | 0.0 | 2.6 | 0.00 | 0.00 | 0.00 | 97 | 1019.1 |
| 20260906122503 | 67 | 94 | 2.6 | 2.6 | 0.00 | 0.00 | 0.00 | 98 | 1018.8 |
| 20260906121959 | 67 | 106 | 1.7 | 5.2 | 0.00 | 0.00 | 0.00 | 98 | 1018.8 |
| 20260906121455 | 66 | 96 | 0.9 | 2.6 | 0.00 | 0.00 | 0.00 | 99 | 1018.9 |
| 20260906120951 | 66 | 101 | 0.9 | 2.6 | 0.00 | 0.00 | 0.00 | 99 | 1018.7 |
| 20260906120447 | 66 | 102 | 0.9 | 2.6 | 0.00 | 0.00 | 0.00 | 99 | 1018.8 |
| 20260906115943 | 66 | 111 | 0.0 | 3.5 | 0.00 | 0.00 | 0.00 | 99 | 1018.6 |
| 20260906115438 | 66 | 133 | 2.6 | 2.6 | 0.00 | 0.00 | 0.00 | 99 | 1018.6 |
| 20260906114932 | 66 | 95 | 1.7 | 2.6 | 0.00 | 0.00 | 0.00 | 99 | 1018.4 |
| 20260906114432 | 66 | 112 | 1.7 | 2.6 | 0.00 | 0.00 | 0.00 | 99 | 1018.6 |
| 20260906113928 | 66 | 114 | 0.0 | 1.7 | 0.00 | 0.00 | 0.00 | 99 | 1018.5 |
| 20260906113426 | 66 | 110 | 2.6 | 5.2 | 0.00 | 0.00 | 0.00 | 99 | 1018.2 |
| 20260906112923 | 66 | 134 | 1.7 | 2.6 | 0.00 | 0.00 | 0.00 | 99 | 1018.3 |
| 20260906112418 | 66 | 102 | 1.7 | 3.5 | 0.00 | 0.00 | 0.00 | 99 | 1018.3 |
| 20260906111914 | 66 | 114 | 1.7 | 2.6 | 0.00 | 0.00 | 0.00 | 99 | 1018.2 |
| 20260906111413 | 66 | 99 | 0.0 | 0.0 | 0.00 | 0.00 | 0.00 | 99 | 1018.2 |
| 20260906110908 | 66 | 99 | 0.9 | 1.7 | 0.00 | 0.00 | 0.00 | 99 | 1018.3 |
| 20260906110403 | 66 | 99 | 0.0 | 0.9 | 0.00 | 0.00 | 0.00 | 99 | 1018.2 |
| 20260906105903 | 66 | 99 | 0.0 | 0.0 | 0.00 | 0.00 | 0.00 | 99 | 1018.2 |
| 20260906105358 | 66 | 99 | 0.9 | 1.7 | 0.00 | 0.00 | 0.00 | 99 | 1018.0 |
| 20260906104854 | 67 | 99 | 0.0 | 0.0 | 0.00 | 0.00 | 0.00 | 98 | 1018.0 |
| 20260906104352 | 67 | 99 | 0.0 | 0.9 | 0.00 | 0.00 | 0.00 | 98 | 1018.0 |
| 20260906103851 | 67 | 99 | 0.0 | 0.0 | 0.00 | 0.00 | 0.00 | 98 | 1018.0 |
| 20260906103349 | 67 | 99 | 0.9 | 1.7 | 0.00 | 0.00 | 0.00 | 98 | 1018.1 |
| 20260906102846 | 67 | 99 | 0.0 | 0.9 | 0.00 | 0.00 | 0.00 | 98 | 1018.1 |
| 20260906102344 | 67 | 99 | 0.0 | 0.9 | 0.00 | 0.00 | 0.00 | 97 | 1018.1 |
| 20260906101840 | 68 | 113 | 1.7 | 2.6 | 0.00 | 0.00 | 0.00 | 97 | 1017.8 |
| 20260906101335 | 68 | 145 | 0.9 | 2.6 | 0.00 | 0.00 | 0.00 | 97 | 1017.9 |
| 20260906100831 | 68 | 111 | 3.5 | 3.5 | 0.00 | 0.00 | 0.00 | 97 | 1017.8 |
| 20260906100329 | 68 | 105 | 2.6 | 2.6 | 0.00 | 0.00 | 0.00 | 97 | 1017.8 |
| 20260906095825 | 68 | 113 | 0.9 | 1.7 | 0.00 | 0.00 | 0.00 | 96 | 1017.8 |
| 20260906095320 | 68 | 100 | 0.0 | 0.9 | 0.00 | 0.00 | 0.00 | 96 | 1017.7 |
| 20260906094819 | 68 | 109 | 0.9 | 1.7 | 0.00 | 0.00 | 0.00 | 96 | 1017.3 |
| 20260906094315 | 69 | 108 | 1.7 | 2.6 | 0.00 | 0.00 | 0.00 | 96 | 1017.3 |
| 20260906093811 | 69 | 115 | 1.7 | 2.6 | 0.00 | 0.00 | 0.00 | 96 | 1017.5 |
| 20260906093307 | 69 | 95 | 1.7 | 2.6 | 0.00 | 0.00 | 0.00 | 96 | 1017.3 |
| 20260906092802 | 69 | 99 | 1.7 | 2.6 | 0.00 | 0.00 | 0.00 | 96 | 1017.3 |
| 20260906092305 | 69 | 91 | 1.7 | 2.6 | 0.00 | 0.00 | 0.00 | 95 | 1017.2 |
| 20260906091757 | 69 | 108 | 0.9 | 1.7 | 0.00 | 0.00 | 0.00 | 95 | 1017.2 |
| 20260906091253 | 69 | 98 | 1.7 | 2.6 | 0.00 | 0.00 | 0.00 | 95 | 1017.5 |
| 20260906090750 | 69 | 102 | 2.6 | 2.6 | 0.00 | 0.00 | 0.00 | 96 | 1017.5 |
| 20260906090248 | 69 | 102 | 1.7 | 2.6 | 0.00 | 0.00 | 0.00 | 96 | 1017.2 |
| 20260906085748 | 69 | 113 | 0.9 | 2.6 | 0.00 | 0.00 | 0.00 | 96 | 1017.5 |
| 20260906085247 | 69 | 116 | 1.7 | 3.5 | 0.00 | 0.00 | 0.00 | 95 | 1017.3 |
| 20260906084742 | 69 | 113 | 1.7 | 2.6 | 0.00 | 0.00 | 0.00 | 96 | 1017.0 |
| 20260906084236 | 69 | 105 | 0.9 | 1.7 | 0.00 | 0.00 | 0.00 | 96 | 1017.1 |
| 20260906083732 | 68 | 96 | 0.9 | 2.6 | 0.00 | 0.00 | 0.00 | 97 | 1017.0 |
| 20260906083227 | 68 | 89 | 0.9 | 1.7 | 0.00 | 0.00 | 0.00 | 98 | 1017.1 |
| 20260906082722 | 68 | 89 | 1.7 | 1.7 | 0.00 | 0.00 | 0.00 | 98 | 1017.0 |
| 20260906082217 | 68 | 89 | 0.0 | 0.9 | 0.00 | 0.00 | 0.00 | 98 | 1017.3 |
| 20260906081713 | 68 | 204 | 0.9 | 0.9 | 0.00 | 0.00 | 0.00 | 98 | 1017.2 |
| 20260906081208 | 67 | 115 | 1.7 | 1.7 | 0.00 | 0.00 | 0.00 | 98 | 1017.1 |
| 20260906080704 | 67 | 98 | 1.7 | 2.6 | 0.00 | 0.00 | 0.00 | 98 | 1017.2 |
| 20260906080200 | 67 | 110 | 2.6 | 2.6 | 0.00 | 0.00 | 0.00 | 98 | 1017.2 |
| 20260906075659 | 67 | 107 | 1.7 | 1.7 | 0.00 | 0.00 | 0.00 | 98 | 1017.3 |
| 20260906075154 | 68 | 107 | 0.0 | 0.0 | 0.00 | 0.00 | 0.00 | 97 | 1017.3 |
| 20260906074649 | 68 | 107 | 0.0 | 0.0 | 0.00 | 0.00 | 0.00 | 97 | 1017.1 |
| 20260906074149 | 68 | 107 | 0.9 | 1.7 | 0.00 | 0.00 | 0.00 | 97 | 1017.2 |
| 20260906073643 | 68 | 107 | 0.9 | 1.7 | 0.00 | 0.00 | 0.00 | 97 | 1017.3 |
| 20260906073139 | 68 | 116 | 0.9 | 1.7 | 0.00 | 0.00 | 0.00 | 97 | 1017.2 |
| 20260906072634 | 68 | 96 | 2.6 | 2.6 | 0.00 | 0.00 | 0.00 | 97 | 1017.3 |
| 20260906072130 | 68 | 111 | 0.9 | 2.6 | 0.00 | 0.00 | 0.00 | 97 | 1017.2 |
| 20260906071626 | 68 | 109 | 2.6 | 3.5 | 0.00 | 0.00 | 0.00 | 97 | 1017.5 |
| 20260906071126 | 68 | 106 | 1.7 | 2.6 | 0.00 | 0.00 | 0.00 | 96 | 1017.7 |
| 20260906070623 | 68 | 106 | 0.0 | 1.7 | 0.00 | 0.00 | 0.00 | 96 | 1017.7 |
| 20260906070119 | 68 | 105 | 0.0 | 0.0 | 0.00 | 0.00 | 0.00 | 96 | 1017.6 |
| 20260906065618 | 68 | 105 | 0.0 | 1.7 | 0.00 | 0.00 | 0.00 | 95 | 1017.6 |
| 20260906065113 | 68 | 115 | 0.9 | 1.7 | 0.00 | 0.00 | 0.00 | 95 | 1017.7 |
| 20260906064609 | 69 | 98 | 1.7 | 2.6 | 0.00 | 0.00 | 0.00 | 95 | 1017.7 |
| 20260906064104 | 68 | 111 | 1.7 | 2.6 | 0.00 | 0.00 | 0.00 | 95 | 1017.8 |
| 20260906063559 | 69 | 102 | 1.7 | 3.5 | 0.00 | 0.00 | 0.00 | 95 | 1017.9 |
| 20260906063055 | 69 | 113 | 2.6 | 3.5 | 0.00 | 0.00 | 0.00 | 95 | 1017.6 |
| 20260906062550 | 69 | 102 | 1.7 | 2.6 | 0.00 | 0.00 | 0.00 | 95 | 1017.8 |
| 20260906062044 | 68 | 98 | 2.6 | 2.6 | 0.00 | 0.00 | 0.00 | 96 | 1017.9 |
| 20260906061541 | 68 | 98 | 1.7 | 1.7 | 0.00 | 0.00 | 0.00 | 97 | 1017.9 |
| 20260906061040 | 68 | 94 | 0.0 | 0.9 | 0.00 | 0.00 | 0.00 | 97 | 1017.7 |
| 20260906060537 | 67 | 94 | 0.0 | 0.0 | 0.00 | 0.00 | 0.00 | 98 | 1017.8 |
| 20260906060034 | 68 | 94 | 0.0 | 0.0 | 0.00 | 0.00 | 0.00 | 97 | 1017.5 |
| 20260906055529 | 68 | 94 | 0.0 | 0.0 | 0.00 | 0.00 | 0.00 | 97 | 1017.7 |
| 20260906055025 | 68 | 94 | 0.0 | 0.0 | 0.00 | 0.00 | 0.00 | 97 | 1017.7 |
| 20260906054524 | 68 | 94 | 0.0 | 0.0 | 0.00 | 0.00 | 0.00 | 97 | 1017.6 |
| 20260906054020 | 68 | 94 | 0.0 | 0.0 | 0.00 | 0.00 | 0.00 | 97 | 1017.8 |
| 20260906053516 | 68 | 94 | 0.0 | 0.0 | 0.00 | 0.00 | 0.00 | 96 | 1017.7 |
| 20260906053011 | 68 | 94 | 0.0 | 0.0 | 0.00 | 0.00 | 0.00 | 96 | 1017.7 |
| 20260906052507 | 68 | 94 | 0.0 | 0.0 | 0.00 | 0.00 | 0.00 | 96 | 1017.6 |
| 20260906052004 | 69 | 94 | 0.0 | 0.0 | 0.00 | 0.00 | 0.00 | 95 | 1017.8 |
| 20260906051459 | 69 | 94 | 0.9 | 0.9 | 0.00 | 0.00 | 0.00 | 96 | 1017.9 |
| 20260906050954 | 69 | 94 | 0.0 | 0.0 | 0.00 | 0.00 | 0.00 | 95 | 1017.7 |
| 20260906050453 | 69 | 94 | 0.0 | 0.0 | 0.00 | 0.00 | 0.00 | 95 | 1017.7 |
| 20260906045948 | 69 | 94 | 0.0 | 0.9 | 0.00 | 0.00 | 0.00 | 95 | 1017.8 |
| 20260906045447 | 69 | 94 | 0.0 | 0.0 | 0.00 | 0.00 | 0.00 | 95 | 1017.8 |
| 20260906044943 | 69 | 94 | 0.0 | 0.0 | 0.00 | 0.00 | 0.00 | 95 | 1017.7 |
| 20260906044438 | 69 | 94 | 0.0 | 0.0 | 0.00 | 0.00 | 0.00 | 95 | 1017.8 |
| 20260906043933 | 69 | 94 | 0.0 | 0.0 | 0.00 | 0.00 | 0.00 | 94 | 1017.9 |
| 20260906043429 | 69 | 94 | 0.0 | 0.0 | 0.00 | 0.00 | 0.00 | 94 | 1017.8 |
| 20260906042925 | 69 | 94 | 0.0 | 0.0 | 0.00 | 0.00 | 0.00 | 93 | 1017.7 |
| 20260906042424 | 69 | 94 | 0.0 | 0.0 | 0.00 | 0.00 | 0.00 | 93 | 1017.7 |
| 20260906041918 | 69 | 94 | 0.0 | 0.0 | 0.00 | 0.00 | 0.00 | 93 | 1017.7 |
| 20260906041415 | 69 | 94 | 0.0 | 0.0 | 0.00 | 0.00 | 0.00 | 94 | 1017.7 |
| 20260906040914 | 69 | 94 | 0.0 | 0.0 | 0.00 | 0.00 | 0.00 | 94 | 1017.6 |
| 20260906040409 | 69 | 94 | 0.0 | 0.0 | 0.00 | 0.00 | 0.00 | 94 | 1017.8 |
| 20260906035905 | 69 | 94 | 0.0 | 0.0 | 0.00 | 0.00 | 0.00 | 93 | 1017.8 |
| 20260906035400 | 69 | 94 | 0.0 | 0.0 | 0.00 | 0.00 | 0.00 | 93 | 1017.6 |
| 20260906034855 | 69 | 94 | 0.0 | 0.0 | 0.00 | 0.00 | 0.00 | 93 | 1017.3 |
| 20260906034350 | 69 | 94 | 0.0 | 0.9 | 0.00 | 0.00 | 0.00 | 93 | 1017.8 |
| 20260906033846 | 69 | 94 | 0.0 | 0.0 | 0.00 | 0.00 | 0.00 | 94 | 1017.6 |
| 20260906033345 | 69 | 94 | 0.0 | 0.0 | 0.00 | 0.00 | 0.00 | 94 | 1017.8 |
| 20260906032842 | 69 | 94 | 0.0 | 0.0 | 0.00 | 0.00 | 0.00 | 93 | 1017.9 |
| 20260906032337 | 69 | 94 | 0.0 | 0.0 | 0.00 | 0.00 | 0.00 | 93 | 1017.9 |
| 20260906031833 | 69 | 94 | 0.0 | 0.0 | 0.00 | 0.00 | 0.00 | 93 | 1017.9 |
| 20260906031328 | 69 | 94 | 0.0 | 0.0 | 0.00 | 0.00 | 0.00 | 93 | 1017.9 |
| 20260906030827 | 69 | 94 | 0.0 | 0.0 | 0.00 | 0.00 | 0.00 | 92 | 1017.9 |
| 20260906030322 | 69 | 94 | 0.0 | 0.0 | 0.00 | 0.00 | 0.00 | 92 | 1017.8 |
| 20260906025817 | 69 | 94 | 0.0 | 0.0 | 0.00 | 0.00 | 0.00 | 93 | 1018.1 |
| 20260906025311 | 69 | 94 | 0.0 | 0.0 | 0.00 | 0.00 | 0.00 | 93 | 1018.1 |
| 20260906024810 | 69 | 94 | 0.0 | 0.0 | 0.00 | 0.00 | 0.00 | 93 | 1018.1 |
| 20260906024309 | 69 | 94 | 0.0 | 0.0 | 0.00 | 0.00 | 0.00 | 93 | 1018.1 |
| 20260906023805 | 70 | 94 | 0.0 | 0.0 | 0.00 | 0.00 | 0.00 | 93 | 1018.0 |
| 20260906023301 | 70 | 94 | 0.0 | 0.0 | 0.00 | 0.00 | 0.00 | 92 | 1017.9 |
| 20260906022756 | 70 | 94 | 0.0 | 0.0 | 0.00 | 0.00 | 0.00 | 92 | 1017.9 |
| 20260906022251 | 70 | 94 | 0.0 | 0.0 | 0.00 | 0.00 | 0.00 | 92 | 1017.8 |
| 20260906021747 | 70 | 94 | 0.0 | 0.0 | 0.00 | 0.00 | 0.00 | 91 | 1017.7 |
| 20260906021245 | 71 | 94 | 0.0 | 0.0 | 0.00 | 0.00 | 0.00 | 91 | 1017.2 |
| 20260906020741 | 71 | 94 | 0.0 | 0.0 | 0.00 | 0.00 | 0.00 | 90 | 1017.2 |
| 20260906020235 | 71 | 94 | 0.0 | 0.0 | 0.00 | 0.00 | 0.00 | 88 | 1017.1 |
| 20260906015730 | 72 | 94 | 0.0 | 0.0 | 0.00 | 0.00 | 0.00 | 88 | 1017.0 |
| 20260906015228 | 72 | 94 | 0.0 | 0.0 | 0.00 | 0.00 | 0.00 | 87 | 1016.8 |
| 20260906014723 | 72 | 94 | 0.0 | 0.0 | 0.00 | 0.00 | 0.00 | 86 | 1016.6 |
| 20260906014218 | 73 | 94 | 0.0 | 0.0 | 0.00 | 0.00 | 0.00 | 85 | 1016.6 |
| 20260906013709 | 73 | 94 | 0.9 | 1.7 | 0.00 | 0.00 | 0.00 | 83 | 1016.3 |
| 20260906013209 | 74 | 254 | 0.0 | 0.0 | 0.00 | 0.00 | 0.00 | 82 | 1016.4 |
| 20260906012704 | 74 | 254 | 0.0 | 0.0 | 0.00 | 0.00 | 0.00 | 81 | 1016.1 |
| 20260906012203 | 75 | 254 | 0.0 | 0.9 | 0.00 | 0.00 | 0.00 | 80 | 1016.2 |
| 20260906011659 | 75 | 249 | 0.9 | 1.7 | 0.00 | 0.00 | 0.00 | 79 | 1015.9 |
| 20260906011153 | 75 | 94 | 0.9 | 3.5 | 0.00 | 0.00 | 0.00 | 79 | 1015.6 |
| 20260906010649 | 76 | 110 | 0.9 | 2.6 | 0.00 | 0.00 | 0.00 | 79 | 1015.1 |
| 20260906010145 | 76 | 195 | 1.7 | 2.6 | 0.00 | 0.00 | 0.00 | 78 | 1015.1 |
| 20260906005644 | 76 | 129 | 1.7 | 3.5 | 0.00 | 0.00 | 0.00 | 78 | 1014.9 |
| 20260906005144 | 76 | 118 | 1.7 | 5.2 | 0.00 | 0.00 | 0.00 | 77 | 1015.2 |
| 20260906004643 | 76 | 111 | 3.5 | 5.2 | 0.00 | 0.00 | 0.00 | 76 | 1015.1 |
| 20260906004138 | 77 | 109 | 3.5 | 3.5 | 0.00 | 0.00 | 0.00 | 76 | 1015.2 |
| 20260906003633 | 77 | 113 | 3.5 | 6.1 | 0.00 | 0.00 | 0.00 | 75 | 1015.1 |
| 20260906003129 | 78 | 112 | 4.3 | 5.2 | 0.00 | 0.00 | 0.00 | 75 | 1015.2 |
| 20260906002624 | 78 | 136 | 3.5 | 5.2 | 0.00 | 0.00 | 0.00 | 74 | 1015.3 |
| 20260906002119 | 78 | 97 | 0.0 | 0.9 | 0.00 | 0.00 | 0.00 | 73 | 1015.3 |
| 20260906001615 | 78 | 122 | 1.7 | 3.5 | 0.00 | 0.00 | 0.00 | 73 | 1015.3 |
| 20260906001114 | 79 | 100 | 0.9 | 3.5 | 0.00 | 0.00 | 0.00 | 73 | 1015.0 |
| 20260906000611 | 79 | 119 | 2.6 | 3.5 | 0.00 | 0.00 | 0.00 | 72 | 1015.1 |
| 20260906000106 | 79 | 89 | 5.2 | 7.0 | 0.00 | 0.00 | 0.00 | 72 | 1015.0 |
| 20260905235604 | 80 | 143 | 3.5 | 6.1 | 0.00 | 0.00 | 0.00 | 72 | 1014.9 |
| 20260905235100 | 80 | 116 | 3.5 | 6.1 | 0.00 | 0.00 | 0.00 | 71 | 1015.1 |
| 20260905234555 | 80 | 75 | 4.3 | 7.8 | 0.00 | 0.00 | 0.00 | 71 | 1015.0 |
| 20260905234050 | 80 | 77 | 4.3 | 8.7 | 0.00 | 0.00 | 0.00 | 70 | 1014.8 |
| 20260905233545 | 81 | 66 | 5.2 | 7.0 | 0.00 | 0.00 | 0.00 | 70 | 1014.8 |
| 20260905233045 | 81 | 100 | 3.5 | 5.2 | 0.00 | 0.00 | 0.00 | 70 | 1015.0 |
| 20260905232540 | 81 | 48 | 5.2 | 6.1 | 0.00 | 0.00 | 0.00 | 69 | 1014.9 |
| 20260905232036 | 81 | 116 | 7.0 | 7.8 | 0.00 | 0.00 | 0.00 | 69 | 1014.9 |
| 20260905231531 | 81 | 55 | 5.2 | 11.3 | 0.00 | 0.00 | 0.00 | 68 | 1014.6 |
| 20260905231027 | 82 | 119 | 6.1 | 7.8 | 0.00 | 0.00 | 0.00 | 68 | 1014.7 |
| 20260905230526 | 82 | 74 | 7.0 | 9.6 | 0.00 | 0.00 | 0.00 | 67 | 1015.0 |
| 20260905230024 | 82 | 78 | 4.3 | 13.0 | 0.00 | 0.00 | 0.00 | 67 | 1014.9 |
| 20260905225520 | 82 | 88 | 3.5 | 7.8 | 0.00 | 0.00 | 0.00 | 67 | 1014.9 |
| 20260905225015 | 82 | 59 | 3.5 | 7.8 | 0.00 | 0.00 | 0.00 | 67 | 1015.1 |
| 20260905224515 | 82 | 104 | 8.7 | 9.6 | 0.00 | 0.00 | 0.00 | 67 | 1015.2 |
| 20260905224014 | 82 | 91 | 4.3 | 7.0 | 0.00 | 0.00 | 0.00 | 67 | 1015.2 |
| 20260905223512 | 82 | 81 | 3.5 | 7.0 | 0.00 | 0.00 | 0.00 | 66 | 1015.2 |
| 20260905223008 | 82 | 8 | 3.5 | 6.1 | 0.00 | 0.00 | 0.00 | 65 | 1015.3 |
| 20260905222507 | 83 | 107 | 4.3 | 7.0 | 0.00 | 0.00 | 0.00 | 65 | 1015.4 |
| 20260905222002 | 82 | 32 | 5.2 | 6.1 | 0.00 | 0.00 | 0.00 | 66 | 1015.4 |
| 20260905221454 | 82 | 104 | 6.1 | 7.8 | 0.00 | 0.00 | 0.00 | 65 | 1015.3 |
| 20260905220950 | 82 | 42 | 3.5 | 7.8 | 0.00 | 0.00 | 0.00 | 67 | 1015.2 |
| 20260905220446 | 82 | 51 | 5.2 | 7.8 | 0.00 | 0.00 | 0.00 | 67 | 1015.1 |
| 20260905215944 | 82 | 83 | 2.6 | 8.7 | 0.00 | 0.00 | 0.00 | 66 | 1015.2 |
| 20260905215440 | 82 | 45 | 1.7 | 9.6 | 0.00 | 0.00 | 0.00 | 66 | 1015.1 |
| 20260905214937 | 83 | 48 | 5.2 | 7.8 | 0.00 | 0.00 | 0.00 | 67 | 1014.9 |
| 20260905214432 | 82 | 59 | 5.2 | 7.8 | 0.00 | 0.00 | 0.00 | 67 | 1015.2 |
| 20260905213931 | 82 | 1 | 2.6 | 7.0 | 0.00 | 0.00 | 0.00 | 69 | 1015.4 |
| 20260905213428 | 82 | 78 | 1.7 | 5.2 | 0.00 | 0.00 | 0.00 | 68 | 1015.5 |
| 20260905212923 | 82 | 68 | 3.5 | 5.2 | 0.00 | 0.00 | 0.00 | 69 | 1015.5 |
| 20260905212418 | 82 | 67 | 4.3 | 7.0 | 0.00 | 0.00 | 0.00 | 69 | 1015.5 |
| 20260905211917 | 82 | 48 | 2.6 | 5.2 | 0.00 | 0.00 | 0.00 | 70 | 1015.8 |
| 20260905211413 | 82 | 52 | 3.5 | 7.0 | 0.00 | 0.00 | 0.00 | 69 | 1015.6 |
| 20260905210909 | 82 | 20 | 0.9 | 7.0 | 0.00 | 0.00 | 0.00 | 70 | 1015.8 |
| 20260905210408 | 82 | 87 | 5.2 | 7.8 | 0.00 | 0.00 | 0.00 | 68 | 1016.2 |
| 20260905205908 | 82 | 52 | 1.7 | 2.6 | 0.00 | 0.00 | 0.00 | 70 | 1016.0 |
| 20260905205403 | 82 | 70 | 3.5 | 6.1 | 0.00 | 0.00 | 0.00 | 70 | 1016.1 |
| 20260905204901 | 82 | 68 | 1.7 | 3.5 | 0.00 | 0.00 | 0.00 | 70 | 1016.4 |
| 20260905204358 | 81 | 43 | 2.6 | 5.2 | 0.00 | 0.00 | 0.00 | 72 | 1016.4 |
| 20260905203856 | 82 | 61 | 1.7 | 5.2 | 0.00 | 0.00 | 0.00 | 71 | 1016.4 |
| 20260905203352 | 82 | 105 | 1.7 | 2.6 | 0.00 | 0.00 | 0.00 | 68 | 1016.5 |
| 20260905202842 | 82 | 91 | 2.6 | 2.6 | 0.00 | 0.00 | 0.00 | 69 | 1016.5 |
| 20260905202337 | 82 | 102 | 2.6 | 3.5 | 0.00 | 0.00 | 0.00 | 71 | 1016.7 |
| 20260905201833 | 81 | 94 | 0.9 | 1.7 | 0.00 | 0.00 | 0.00 | 70 | 1016.7 |
| 20260905201328 | 81 | 125 | 2.6 | 3.5 | 0.00 | 0.00 | 0.00 | 71 | 1016.8 |
| 20260905200828 | 81 | 90 | 3.5 | 5.2 | 0.00 | 0.00 | 0.00 | 71 | 1016.8 |
| 20260905200325 | 81 | 47 | 0.9 | 5.2 | 0.00 | 0.00 | 0.00 | 72 | 1017.1 |
| 20260905195821 | 81 | 316 | 2.6 | 2.6 | 0.00 | 0.00 | 0.00 | 70 | 1017.0 |
| 20260905195317 | 80 | 72 | 1.7 | 3.5 | 0.00 | 0.00 | 0.00 | 73 | 1017.0 |
| 20260905194813 | 81 | 89 | 0.0 | 3.5 | 0.00 | 0.00 | 0.00 | 74 | 1017.1 |
| 20260905194307 | 82 | 96 | 2.6 | 2.6 | 0.00 | 0.00 | 0.00 | 72 | 1017.0 |
| 20260905193806 | 82 | 195 | 0.0 | 2.6 | 0.00 | 0.00 | 0.00 | 71 | 1017.1 |
| 20260905193302 | 80 | 115 | 3.5 | 5.2 | 0.00 | 0.00 | 0.00 | 71 | 1017.2 |
| 20260905192756 | 80 | 68 | 0.0 | 3.5 | 0.00 | 0.00 | 0.00 | 72 | 1017.0 |
| 20260905192253 | 80 | 82 | 0.9 | 2.6 | 0.00 | 0.00 | 0.00 | 74 | 1017.3 |
| 20260905191752 | 80 | 74 | 1.7 | 5.2 | 0.00 | 0.00 | 0.00 | 75 | 1016.9 |
| 20260905191250 | 80 | 139 | 2.6 | 6.1 | 0.00 | 0.00 | 0.00 | 74 | 1017.0 |
| 20260905190749 | 80 | 134 | 1.7 | 7.0 | 0.00 | 0.00 | 0.00 | 77 | 1017.1 |
| 20260905190248 | 78 | 135 | 0.9 | 2.6 | 0.00 | 0.00 | 0.00 | 75 | 1017.1 |
| 20260905185747 | 80 | 120 | 3.5 | 5.2 | 0.00 | 0.00 | 0.00 | 75 | 1017.0 |
| 20260905185243 | 79 | 111 | 1.7 | 2.6 | 0.00 | 0.00 | 0.00 | 76 | 1017.1 |
| 20260905184742 | 79 | 299 | 1.7 | 1.7 | 0.00 | 0.00 | 0.00 | 75 | 1017.1 |
| 20260905184242 | 79 | 73 | 0.9 | 1.7 | 0.00 | 0.00 | 0.00 | 76 | 1017.0 |
| 20260905183740 | 78 | 74 | 0.0 | 0.9 | 0.00 | 0.00 | 0.00 | 76 | 1017.1 |
| 20260905183236 | 78 | 85 | 0.9 | 2.6 | 0.00 | 0.00 | 0.00 | 77 | 1017.2 |
| 20260905182731 | 78 | 69 | 1.7 | 2.6 | 0.00 | 0.00 | 0.00 | 78 | 1017.3 |
| 20260905182230 | 77 | 60 | 0.9 | 0.9 | 0.00 | 0.00 | 0.00 | 79 | 1017.3 |
| 20260905181726 | 77 | 95 | 1.7 | 2.6 | 0.00 | 0.00 | 0.00 | 80 | 1017.2 |
| 20260905181224 | 77 | 88 | 0.9 | 2.6 | 0.00 | 0.00 | 0.00 | 79 | 1017.2 |
| 20260905180720 | 77 | 81 | 3.5 | 3.5 | 0.00 | 0.00 | 0.00 | 79 | 1017.1 |
| 20260905180215 | 77 | 103 | 5.2 | 6.1 | 0.00 | 0.00 | 0.00 | 78 | 1017.2 |
| 20260905175714 | 77 | 94 | 4.3 | 6.1 | 0.00 | 0.00 | 0.00 | 79 | 1017.5 |
| 20260905175209 | 77 | 133 | 4.3 | 7.0 | 0.00 | 0.00 | 0.00 | 78 | 1017.3 |
| 20260905174704 | 77 | 96 | 2.6 | 7.0 | 0.00 | 0.00 | 0.00 | 79 | 1017.3 |
| 20260905174200 | 78 | 108 | 2.6 | 5.2 | 0.00 | 0.00 | 0.00 | 77 | 1017.6 |
| 20260905173656 | 76 | 167 | 0.0 | 2.6 | 0.00 | 0.00 | 0.00 | 80 | 1017.5 |
| 20260905173151 | 76 | 69 | 2.6 | 5.2 | 0.00 | 0.00 | 0.00 | 83 | 1017.8 |
| 20260905172651 | 76 | 3 | 0.0 | 0.9 | 0.00 | 0.00 | 0.00 | 81 | 1017.7 |
| 20260905172151 | 76 | 71 | 0.9 | 0.9 | 0.00 | 0.00 | 0.00 | 81 | 1017.7 |
| 20260905171647 | 75 | 71 | 2.6 | 2.6 | 0.00 | 0.00 | 0.00 | 83 | 1017.7 |
| 20260905171143 | 77 | 111 | 1.7 | 2.6 | 0.00 | 0.00 | 0.00 | 81 | 1017.9 |
| 20260905170640 | 76 | 18 | 0.0 | 0.9 | 0.00 | 0.00 | 0.00 | 80 | 1017.8 |
| 20260905170135 | 76 | 34 | 0.9 | 0.9 | 0.00 | 0.00 | 0.00 | 82 | 1017.9 |
| 20260905165629 | 76 | 26 | 0.0 | 0.0 | 0.00 | 0.00 | 0.00 | 82 | 1017.9 |
| 20260905165124 | 75 | 135 | 0.0 | 0.0 | 0.00 | 0.00 | 0.00 | 86 | 1018.2 |
| 20260905164625 | 75 | 352 | 0.9 | 0.9 | 0.00 | 0.00 | 0.00 | 84 | 1018.2 |
| 20260905164124 | 75 | 351 | 0.0 | 0.9 | 0.00 | 0.00 | 0.00 | 85 | 1018.2 |
| 20260905163620 | 74 | 45 | 0.0 | 0.0 | 0.00 | 0.00 | 0.00 | 86 | 1018.2 |
| 20260905163116 | 73 | 177 | 0.0 | 0.0 | 0.00 | 0.00 | 0.00 | 88 | 1017.9 |
| 20260905162612 | 73 | 343 | 0.9 | 1.7 | 0.00 | 0.00 | 0.00 | 88 | 1018.1 |